Showing default

HODOYOSHI 1, 40299

Orbit data source: Space-Track

HODOYOSHI 1, 40299 is a Japanese payload satellite in SSO that was launched on Thu, 06 Nov 2014 UTC via a DNEPR launch vehicle from the Orenburg, Russia (OREN). Payloads include a variety of satellites, spacecraft, and rockets equipped with specific instruments for various scientific and technological missions. These include communications satellites like Starlink; space stations such as the ISS; scientific satellites like the Hubble; Earth observation satellites from companies like Planet Labs, Umbra, and HawkEye 360; GPS; miniature CubeSats for education and research; and military/defense satellites.

Loading next visibility...
HODOYOSHI 1 details
Identifier
40299, 2014-070B
Orbit
SSO
Last TLE update8 hours ago
Origin
Flag of JPAXEL/TOK (JP / JPN)
ManufacturerAXELSPACE
MissionOperational Commercial Imaging
Bus & MotorHODOYOSHI, Unknown motor
Mass50 kg wet, 50 kg dry
Launch date (UTC)
2014-11-06 (10 years ago)
Launch vehicle
DNEPR
Launch site
Orenburg, Russia (OREN)
Object type
Payload
Rocket body
Debris
Shape & HBRBox + 2 Pan, 1.5 m
Radar Cross Section0.614 m², Medium (>0.1 m² and < 1m²)

Expand to show TLE details & history

TLE from 8 hours ago
0 HODOYOSHI 1
1 40299U 14070B   24361.12894445  .00118312  00000-0  81608-3 0  9991
2 40299  97.1075  61.4248 0004489  54.4944 305.6739 15.74222770565012
Epoch: 2024-12-26T03:05Z
Definitive object data (Epoch: 2024-12-26T03:05:40.8Z)
Latitude-0.00006°
Longitude-80.10797°
Altitude348.256 km
Speed7.701 km/s
True Right ascension04h 05m 41s
True Declination0° 00' 00"
Sunlit
Object was in full shadow at TLE epoch
Visualization TLE readout
Latitude-22.35113°
Longitude97.33122°
Altitude357.818 km
Speed7.692 km/s
Apparent Right ascension18h 50m 10s
Apparent Declination-44° 01' 30"
Sunlit
Object is in daylight
Visualization observer readout
Local Sidereal Time10:56:06
Azimuth116.337° SE
Elevation-45.172°
Doppler factor1
Orbital elements
Apogee altitude346.742 km
Perigee altitude340.707 km
Semi-major axis6,721.862 km
Eccentricity0.0004489
Inclination97.1075°
RAAN61.4248°
Arg. of periapsis54.4944°
True anomaly305.6321°
Mean anomaly305.6739°
Eccentric anomaly305.653°
Mean motion3.9383 °/min
BSTAR0.00081608
Orbital period91.41 mins
Loading maneuver chart data...
Loading historical data...
Loading historical data...
Loading historical data...
Loading historical data...
Loading historical data...
Loading historical data...
Loading historical data...

HODOYOSHI 1 Visibility forecast

Observer location: undefined°, undefined

Span
Click to sort rows by Start time (UTC) header in descending order
Start Az.
Max El. time (UTC)
Max El. Az.
Max El.
End time (UTC)
End Az.
4 mins2024-12-26 17:22:43.671Z354.829° N2024-12-26 17:24:43.671Z287.064° WNW35.477°2024-12-26 17:26:43.671Z214.565° SW
|